Time,TemperatureF,DewpointF,PressureIn,WindDirection,WindDirectionDegrees,WindSpeedMPH,WindSpeedGustMPH,Humidity,HourlyPrecipIn,Conditions,Clouds,dailyrainin,SolarRadiationWatts/m^2,SoftwareType,DateUTC
2013-02-18 00:09:00,33.5,22.0,29.86,NNW,330,14.0,-999.0,64,-99.99,,,0.00,0,weatherlink.com 1.10,2013-02-18 07:09:00,
2013-02-18 00:24:00,33.4,22.0,29.86,NNW,330,6.0,-999.0,62,-99.99,,,0.00,0,weatherlink.com 1.10,2013-02-18 07:24:00,
2013-02-18 00:39:00,33.3,21.0,29.86,North,5,10.0,-999.0,62,-99.99,,,0.00,0,weatherlink.com 1.10,2013-02-18 07:39:00,
2013-02-18 00:54:00,33.0,22.0,29.87,NNW,332,11.0,-999.0,64,-99.99,,,0.00,0,weatherlink.com 1.10,2013-02-18 07:54:00,
2013-02-18 01:09:00,32.6,22.0,29.87,NNW,336,6.0,-999.0,66,-99.99,,,0.00,0,weatherlink.com 1.10,2013-02-18 08:09:00,
2013-02-18 01:24:00,32.6,22.0,29.88,NNW,341,6.0,-999.0,66,-99.99,,,0.00,0,weatherlink.com 1.10,2013-02-18 08:24:00,
2013-02-18 01:39:00,32.8,21.0,29.89,NNW,340,9.0,-999.0,62,-99.99,,,0.00,0,weatherlink.com 1.10,2013-02-18 08:39:00,
2013-02-18 01:54:00,33.4,21.0,29.89,NNW,346,9.0,-999.0,60,-99.99,,,0.00,0,weatherlink.com 1.10,2013-02-18 08:54:00,
2013-02-18 02:09:00,33.4,22.0,29.90,NW,323,10.0,-999.0,62,-99.99,,,0.00,0,weatherlink.com 1.10,2013-02-18 09:09:00,
2013-02-18 02:24:00,31.8,23.0,29.91,North,355,10.0,-999.0,70,-99.99,,,0.00,0,weatherlink.com 1.10,2013-02-18 09:24:00,
2013-02-18 02:39:00,31.0,23.0,29.92,NNW,344,10.0,-999.0,72,-99.99,,,0.00,0,weatherlink.com 1.10,2013-02-18 09:39:00,
2013-02-18 02:54:00,31.0,22.0,29.93,NW,325,13.0,-999.0,70,-99.99,,,0.00,0,weatherlink.com 1.10,2013-02-18 09:54:00,
2013-02-18 03:09:00,30.5,21.0,29.93,NNW,348,13.0,-999.0,68,-99.99,,,0.00,0,weatherlink.com 1.10,2013-02-18 10:09:00,
2013-02-18 03:24:00,30.3,20.0,29.94,NNW,346,13.0,-999.0,66,-99.99,,,0.00,0,weatherlink.com 1.10,2013-02-18 10:24:00,
2013-02-18 03:39:00,30.3,19.0,29.94,North,5,20.0,-999.0,64,-99.99,,,0.00,0,weatherlink.com 1.10,2013-02-18 10:39:00,
2013-02-18 03:54:00,30.1,19.0,29.95,North,355,12.0,-999.0,63,-99.99,,,0.00,0,weatherlink.com 1.10,2013-02-18 10:54:00,
2013-02-18 04:09:00,29.5,19.0,29.95,NNW,333,6.0,-999.0,66,-99.99,,,0.00,0,weatherlink.com 1.10,2013-02-18 11:09:00,
2013-02-18 04:24:00,29.0,19.0,29.96,NNW,348,9.0,-999.0,66,-99.99,,,0.00,0,weatherlink.com 1.10,2013-02-18 11:24:00,
2013-02-18 04:39:00,28.6,18.0,29.97,NNW,334,7.0,-999.0,65,-99.99,,,0.00,0,weatherlink.com 1.10,2013-02-18 11:39:00,
2013-02-18 04:55:00,27.7,18.0,29.98,NNW,342,5.0,-999.0,67,-99.99,,,0.00,0,weatherlink.com 1.10,2013-02-18 11:55:00,
2013-02-18 05:10:00,27.8,18.0,29.98,NNW,348,5.0,-999.0,66,-99.99,,,0.00,0,weatherlink.com 1.10,2013-02-18 12:10:00,
2013-02-18 05:25:00,27.4,18.0,29.99,North,355,3.0,-999.0,67,-99.99,,,0.00,0,weatherlink.com 1.10,2013-02-18 12:25:00,
2013-02-18 05:40:00,28.2,17.0,29.99,NNW,345,3.0,-999.0,64,-99.99,,,0.00,0,weatherlink.com 1.10,2013-02-18 12:40:00,
2013-02-18 05:55:00,28.2,17.0,29.99,North,355,9.0,-999.0,63,-99.99,,,0.00,0,weatherlink.com 1.10,2013-02-18 12:55:00,
2013-02-18 06:10:00,28.0,17.0,29.99,NNW,348,5.0,-999.0,63,-99.99,,,0.00,0,weatherlink.com 1.10,2013-02-18 13:10:00,
2013-02-18 06:25:00,27.6,17.0,29.99,North,360,4.0,-999.0,64,-99.99,,,0.00,0,weatherlink.com 1.10,2013-02-18 13:25:00,
2013-02-18 06:40:00,27.9,16.0,30.00,NW,319,6.0,-999.0,62,-99.99,,,0.00,0,weatherlink.com 1.10,2013-02-18 13:40:00,
2013-02-18 06:55:00,27.7,17.0,30.00,NNW,329,13.0,-999.0,64,-99.99,,,0.00,5,weatherlink.com 1.10,2013-02-18 13:55:00,
2013-02-18 07:10:00,27.4,17.0,30.01,NNW,333,10.0,-999.0,65,-99.99,,,0.00,12,weatherlink.com 1.10,2013-02-18 14:10:00,
2013-02-18 07:25:00,27.7,16.0,30.02,NNW,336,5.0,-999.0,63,-99.99,,,0.00,23,weatherlink.com 1.10,2013-02-18 14:25:00,
2013-02-18 07:40:00,28.1,17.0,30.03,NW,314,9.0,-999.0,63,-99.99,,,0.00,37,weatherlink.com 1.10,2013-02-18 14:40:00,
2013-02-18 07:55:00,28.7,17.0,30.04,North,355,6.0,-999.0,61,-99.99,,,0.00,100,weatherlink.com 1.10,2013-02-18 14:55:00,
2013-02-18 08:10:00,29.0,17.0,30.05,NNW,344,9.0,-999.0,61,-99.99,,,0.00,91,weatherlink.com 1.10,2013-02-18 15:10:00,
2013-02-18 08:25:00,29.6,17.0,30.06,NNW,339,5.0,-999.0,60,-99.99,,,0.00,74,weatherlink.com 1.10,2013-02-18 15:25:00,
2013-02-18 08:40:00,30.1,18.0,30.05,NNW,328,5.0,-999.0,60,-99.99,,,0.00,42,weatherlink.com 1.10,2013-02-18 15:40:00,
2013-02-18 08:55:00,30.6,17.0,30.06,North,360,14.0,-999.0,57,-99.99,,,0.00,218,weatherlink.com 1.10,2013-02-18 15:55:00,
2013-02-18 09:10:00,30.7,17.0,30.06,NNW,341,10.0,-999.0,56,-99.99,,,0.00,162,weatherlink.com 1.10,2013-02-18 16:10:00,
2013-02-18 09:25:00,30.7,16.0,30.06,NNW,344,15.0,-999.0,55,-99.99,,,0.00,352,weatherlink.com 1.10,2013-02-18 16:25:00,
2013-02-18 09:40:00,30.9,17.0,30.07,NNW,340,10.0,-999.0,56,-99.99,,,0.00,292,weatherlink.com 1.10,2013-02-18 16:40:00,
2013-02-18 09:55:00,30.8,17.0,30.07,NNW,346,10.0,-999.0,57,-99.99,,,0.00,58,weatherlink.com 1.10,2013-02-18 16:55:00,
2013-02-18 10:11:00,31.2,16.0,30.07,NNW,343,7.0,-999.0,54,-99.99,,,0.00,364,weatherlink.com 1.10,2013-02-18 17:11:00,
2013-02-18 10:26:00,31.9,17.0,30.08,North,355,4.0,-999.0,54,-99.99,,,0.00,439,weatherlink.com 1.10,2013-02-18 17:26:00,
2013-02-18 10:41:00,32.1,17.0,30.09,NNW,340,12.0,-999.0,54,-99.99,,,0.00,125,weatherlink.com 1.10,2013-02-18 17:41:00,
2013-02-18 10:56:00,32.3,17.0,30.09,NNW,348,12.0,-999.0,54,-99.99,,,0.00,589,weatherlink.com 1.10,2013-02-18 17:56:00,
2013-02-18 11:11:00,32.9,18.0,30.10,North,355,12.0,-999.0,55,-99.99,,,0.00,649,weatherlink.com 1.10,2013-02-18 18:11:00,
2013-02-18 11:26:00,32.7,18.0,30.10,North,350,8.0,-999.0,55,-99.99,,,0.00,172,weatherlink.com 1.10,2013-02-18 18:26:00,
2013-02-18 11:41:00,33.5,18.0,30.11,North,360,6.0,-999.0,53,-99.99,,,0.00,232,weatherlink.com 1.10,2013-02-18 18:41:00,
2013-02-18 11:56:00,32.5,17.0,30.11,North,9,11.0,-999.0,53,-99.99,,,0.00,626,weatherlink.com 1.10,2013-02-18 18:56:00,
2013-02-18 12:11:00,33.6,18.0,30.11,North,349,10.0,-999.0,52,-99.99,,,0.00,705,weatherlink.com 1.10,2013-02-18 19:11:00,
2013-02-18 12:26:00,32.5,17.0,30.11,NNW,342,9.0,-999.0,54,-99.99,,,0.00,621,weatherlink.com 1.10,2013-02-18 19:26:00,
2013-02-18 12:41:00,32.3,18.0,30.12,NNW,348,7.0,-999.0,56,-99.99,,,0.00,615,weatherlink.com 1.10,2013-02-18 19:41:00,
2013-02-18 12:56:00,32.6,18.0,30.12,NW,325,10.0,-999.0,55,-99.99,,,0.00,118,weatherlink.com 1.10,2013-02-18 19:56:00,
2013-02-18 13:11:00,30.9,19.0,30.12,North,349,11.0,-999.0,61,-99.99,,,0.00,244,weatherlink.com 1.10,2013-02-18 20:11:00,
2013-02-18 13:26:00,30.9,19.0,30.12,NNW,336,7.0,-999.0,61,-99.99,,,0.00,265,weatherlink.com 1.10,2013-02-18 20:26:00,
2013-02-18 13:41:00,30.4,21.0,30.14,North,355,3.0,-999.0,69,-99.99,,,0.00,229,weatherlink.com 1.10,2013-02-18 20:41:00,
2013-02-18 13:56:00,30.3,21.0,30.14,NNW,348,7.0,-999.0,69,-99.99,,,0.00,446,weatherlink.com 1.10,2013-02-18 20:56:00,
2013-02-18 14:11:00,30.8,18.0,30.14,North,351,11.0,-999.0,59,-99.99,,,0.00,186,weatherlink.com 1.10,2013-02-18 21:11:00,
2013-02-18 14:26:00,30.1,17.0,30.14,NW,321,10.0,-999.0,58,-99.99,,,0.00,482,weatherlink.com 1.10,2013-02-18 21:26:00,
2013-02-18 14:41:00,31.2,16.0,30.15,NNW,340,7.0,-999.0,54,-99.99,,,0.00,461,weatherlink.com 1.10,2013-02-18 21:41:00,
2013-02-18 14:56:00,30.8,17.0,30.16,North,355,10.0,-999.0,57,-99.99,,,0.00,146,weatherlink.com 1.10,2013-02-18 21:56:00,
2013-02-18 15:11:00,32.4,17.0,30.16,NW,326,6.0,-999.0,53,-99.99,,,0.00,485,weatherlink.com 1.10,2013-02-18 22:11:00,
2013-02-18 15:26:00,32.5,17.0,30.17,NNW,341,14.0,-999.0,53,-99.99,,,0.00,427,weatherlink.com 1.10,2013-02-18 22:26:00,
2013-02-18 15:41:00,31.0,16.0,30.17,NNW,346,8.0,-999.0,53,-99.99,,,0.00,137,weatherlink.com 1.10,2013-02-18 22:41:00,
2013-02-18 15:56:00,30.1,15.0,30.17,NNE,14,13.0,-999.0,53,-99.99,,,0.00,118,weatherlink.com 1.10,2013-02-18 22:56:00,
2013-02-18 16:11:00,29.1,15.0,30.18,NNW,344,12.0,-999.0,55,-99.99,,,0.00,178,weatherlink.com 1.10,2013-02-18 23:11:00,
2013-02-18 16:26:00,28.4,15.0,30.19,North,355,15.0,-999.0,57,-99.99,,,0.00,44,weatherlink.com 1.10,2013-02-18 23:26:00,
2013-02-18 16:41:00,27.5,15.0,30.20,North,355,9.0,-999.0,60,-99.99,,,0.00,32,weatherlink.com 1.10,2013-02-18 23:41:00,
2013-02-18 16:56:00,27.3,15.0,30.21,NNW,339,11.0,-999.0,59,-99.99,,,0.00,25,weatherlink.com 1.10,2013-02-18 23:56:00,
2013-02-18 17:11:00,26.7,15.0,30.21,North,355,11.0,-999.0,61,-99.99,,,0.00,7,weatherlink.com 1.10,2013-02-19 00:11:00,
2013-02-18 17:26:00,26.1,14.0,30.21,NE,36,10.0,-999.0,61,-99.99,,,0.00,0,weatherlink.com 1.10,2013-02-19 00:26:00,
2013-02-18 17:41:00,25.3,14.0,30.21,North,360,4.0,-999.0,62,-99.99,,,0.00,0,weatherlink.com 1.10,2013-02-19 00:41:00,
2013-02-18 17:56:00,24.9,14.0,30.22,North,5,6.0,-999.0,63,-99.99,,,0.00,0,weatherlink.com 1.10,2013-02-19 00:56:00,
2013-02-18 18:27:00,22.3,12.0,30.23,North,360,6.0,-999.0,65,-99.99,,,0.00,0,weatherlink.com 1.10,2013-02-19 01:27:00,
2013-02-18 18:42:00,21.5,12.0,30.23,North,360,3.0,-999.0,66,-99.99,,,0.00,0,weatherlink.com 1.10,2013-02-19 01:42:00,
2013-02-18 18:57:00,20.9,12.0,30.24,North,360,4.0,-999.0,68,-99.99,,,0.00,0,weatherlink.com 1.10,2013-02-19 01:57:00,
2013-02-18 19:12:00,20.5,11.0,30.24,North,10,3.0,-999.0,68,-99.99,,,0.00,0,weatherlink.com 1.10,2013-02-19 02:12:00,
2013-02-18 19:27:00,19.7,11.0,30.25,North,10,3.0,-999.0,69,-99.99,,,0.00,0,weatherlink.com 1.10,2013-02-19 02:27:00,
2013-02-18 19:42:00,19.7,11.0,30.26,North,10,4.0,-999.0,70,-99.99,,,0.00,0,weatherlink.com 1.10,2013-02-19 02:42:00,
2013-02-18 19:57:00,20.1,12.0,30.27,North,9,5.0,-999.0,70,-99.99,,,0.00,0,weatherlink.com 1.10,2013-02-19 02:57:00,
2013-02-18 20:12:00,20.1,12.0,30.27,NNE,17,6.0,-999.0,70,-99.99,,,0.00,0,weatherlink.com 1.10,2013-02-19 03:12:00,
2013-02-18 20:27:00,20.1,12.0,30.27,North,9,4.0,-999.0,70,-99.99,,,0.00,0,weatherlink.com 1.10,2013-02-19 03:27:00,
2013-02-18 20:42:00,20.2,12.0,30.28,North,10,3.0,-999.0,70,-99.99,,,0.00,0,weatherlink.com 1.10,2013-02-19 03:42:00,
2013-02-18 20:57:00,20.1,12.0,30.29,North,11,1.0,-999.0,70,-99.99,,,0.00,0,weatherlink.com 1.10,2013-02-19 03:57:00,
2013-02-18 21:12:00,20.2,12.0,30.29,North,11,4.0,-999.0,70,-99.99,,,0.00,0,weatherlink.com 1.10,2013-02-19 04:12:00,
2013-02-18 21:27:00,20.2,12.0,30.29,North,11,6.0,-999.0,70,-99.99,,,0.00,0,weatherlink.com 1.10,2013-02-19 04:27:00,
2013-02-18 21:42:00,19.7,11.0,30.29,North,360,4.0,-999.0,70,-99.99,,,0.00,0,weatherlink.com 1.10,2013-02-19 04:42:00,
2013-02-18 21:57:00,19.4,11.0,30.29,NNE,29,7.0,-999.0,71,-99.99,,,0.00,0,weatherlink.com 1.10,2013-02-19 04:57:00,
2013-02-18 22:12:00,18.8,11.0,30.30,NNE,28,4.0,-999.0,72,-99.99,,,0.00,0,weatherlink.com 1.10,2013-02-19 05:12:00,
2013-02-18 22:27:00,17.8,11.0,30.29,NNE,28,6.0,-999.0,73,-99.99,,,0.00,0,weatherlink.com 1.10,2013-02-19 05:27:00,
2013-02-18 22:42:00,17.1,10.0,30.30,NNE,27,3.0,-999.0,74,-99.99,,,0.00,0,weatherlink.com 1.10,2013-02-19 05:42:00,
2013-02-18 22:57:00,16.3,10.0,30.32,NE,41,0.0,-999.0,75,-99.99,,,0.00,0,weatherlink.com 1.10,2013-02-19 05:57:00,
2013-02-18 23:12:00,15.8,10.0,30.32,NE,41,0.0,-999.0,76,-99.99,,,0.00,0,weatherlink.com 1.10,2013-02-19 06:12:00,
2013-02-18 23:27:00,15.8,10.0,30.33,NE,41,0.0,-999.0,76,-99.99,,,0.00,0,weatherlink.com 1.10,2013-02-19 06:27:00,
2013-02-18 23:42:00,15.3,9.0,30.34,NE,41,0.0,-999.0,77,-99.99,,,0.00,0,weatherlink.com 1.10,2013-02-19 06:42:00,
2013-02-18 23:57:00,14.6,9.0,30.34,NE,41,0.0,-999.0,77,-99.99,,,0.00,0,weatherlink.com 1.10,2013-02-19 06:57:00,